Regional Weather Roundup
Issued by NWS

Home | Current Version | Previous Version | Text Only | Print | Product List | Glossary On
Versions: 1 2 3 4 5 6 7 8 9 10 11 12 13 14 15 16 17 18 19 20 21 22 23 24 25 26 27 28 29 30 31 32 33 34 35 36 37 38 39 40 41 42 43 44 45 46 47 48 49 50
000
ASUS43 KLMK 210610
RWRKY
KENTUCKY REGIONAL WEATHER ROUNDUP
NATIONAL WEATHER SERVICE LOUISVILLE KY
200 AM EDT TUE APR 21 2015

NOTE "FAIR" INDICATES FEW OR NO CLOUDS BELOW 12,000 FEET
WITH NO SIGNIFICANT WEATHER AND/OR OBSTRUCTIONS TO VISIBILITY.

KYZ001>023-026-027-061>063-070>075-210700-
WESTERN AND SOUTH CENTRAL KENTUCKY

CITY           SKY/WX    TMP DP  RH WIND       PRES   REMARKS
PADUCAH        FAIR      48  38  68 SW6       29.90S
HENDERSON      MOCLDY    41  37  87 SW7       29.87S
OWENSBORO      FAIR      46  40  79 SW6       29.88S
HOPKINSVILLE   MOCLDY    51  42  71 SW2       29.91R
BOWLING GREEN  CLOUDY    52  40  63 CALM      29.91R
GLASGOW        MOCLDY    50  42  74 CALM      29.90S
$$

KYZ024-025-028>034-038-045-046-053-210700-
NORTH CENTRAL KENTUCKY

CITY           SKY/WX    TMP DP  RH WIND       PRES   REMARKS
LOUISVILLE/SDF FAIR      49  36  61 SW8       29.86S
LOUISVILLE/LOU FAIR      46  35  65 SW5       29.86S
FORT KNOX      FAIR      44  36  74 SW3       29.85S
$$

KYZ035>037-039>044-047>052-055>060-089>105-210700-
NORTHEAST KENTUCKY

CITY           SKY/WX    TMP DP  RH WIND       PRES   REMARKS
LEXINGTON      MOCLDY    47  35  63 W7        29.86R
COVINGTON      CLOUDY    47  35  63 SW7       29.81R
FRANKFORT      FAIR      44  35  70 SW6       29.85R
$$

KYZ054-064>069-076>088-106>120-210700-
SOUTHEAST KENTUCKY

CITY           SKY/WX    TMP DP  RH WIND       PRES   REMARKS
JACKSON        CLOUDY    50  42  74 VRB6      29.86R
LONDON         CLOUDY    51  46  83 W6        29.88R
SOMERSET       CLOUDY    50  43  76 CALM      29.91S
MIDDLESBORO    CLOUDY    48  47  98 CALM      29.90R
MONTICELLO     MOCLDY    51  46  83 CALM      29.93R
$$




USA.gov is the U.S. government's official web portal to all federal, state and local government web resources and services.